Regional Weather Roundup
Issued by NWS

Home | Current Version | Previous Version | Text Only | Print | Product List | Glossary Off
Versions: 1 2 3 4 5 6 7 8 9 10 11 12 13 14 15 16 17 18 19 20 21 22 23 24 25 26 27 28 29 30 31 32 33 34 35 36 37 38 39 40 41 42 43 44 45 46 47 48 49 50

000
ASUS45 KBOU 231607
RWRCO

WEATHER ROUNDUP FOR COLORADO
NATIONAL WEATHER SERVICE DENVER/BOULDER CO
1000 AM MDT SAT MAY 23 2015

NOTE: "FAIR" INDICATES FEW OR NO CLOUDS BELOW 12000 FEET WITH NO
SIGNIFICANT WEATHER AND/OR OBSTRUCTIONS TO VISIBILITY.

COZ001>005-013-030-031-231700-
...NORTHWEST COLORADO...

CITY           SKY/WX    TMP DP  RH WIND       PRES   REMARKS
CRAIG          MOSUNNY   55  40  56 CALM      29.98F
HAYDEN         MOSUNNY   52  36  54 E5        29.98F
MEEKER         MOSUNNY   54  40  59 MISG      29.98F
MOUNT WERNER   NOT AVBL
STEAMBOAT SPGS MOSUNNY   51  36  57 CALM      29.98F
WALDEN         MOSUNNY   46  36  66 CALM      30.04F
$$

COZ006>008-011-231700-
...WEST CENTRAL VALLEYS...

CITY           SKY/WX    TMP DP  RH WIND       PRES   REMARKS
GRAND JUNCTION SUNNY     59  41  51 SE12      29.95S
MONTROSE       MOSUNNY   58  29  33 VRB6      29.99S
EAGLE          MOSUNNY   52  43  71 SW6       30.01F
RIFLE          MOSUNNY   56  39  53 W7        29.95F
DELTA          SUNNY     60  35  39 MISG      29.98S
NUCLA          PTSUNNY   54  32  43 NW6G16    30.04F
$$

COZ017>023-064>068-231700-
...SOUTHWEST COLORADO...

CITY           SKY/WX    TMP DP  RH WIND       PRES   REMARKS
DURANGO        CLOUDY    54  31  41 W12       30.05R
CORTEZ         MOSUNNY   53  33  46 SW15      30.03S
PAGOSA SPRINGS MOSUNNY   51  23  33 S10G20    30.09S
TELLURIDE      CLOUDY    42  21  44 SE10      30.09S
WOLF CREEK PAS NOT AVBL
$$

COZ009-010-012-014-032>034-037-058>063-231700-
...CENTRAL COLORADO...

CITY           SKY/WX    TMP DP  RH WIND       PRES   REMARKS
ASPEN          MOSUNNY   52  25  35 S14       30.01S
BUENA VISTA    DRIZZLE   42  35  76 CALM      30.07S
COPPER MTN     LGT SNOW  34  27  75 SE13      30.17F VSB 3/4 WCI  25
BERTHOUD PASS  CLOUDY    27  18  69 SE7       30.21F WCI  19
COTTONWOOD PAS PTSUNNY   39  36  87 CALM      30.12S
GUNNISON       MOSUNNY   45  36  70 N7        30.06F
KREMMLING      MOSUNNY   50  37  62 CALM      30.03F
LEADVILLE      LGT SNOW  34  33  96 S7        30.10F FOG     WCI  28
MONARCH PASS   CLOUDY    30  28  93 S8        30.28S VSB 1   WCI  23
SALIDA         CLOUDY    47  38  72 SW3       30.13S
SUNLIGHT       PTSUNNY   36  32  87 SE3         N/A  FOG
WILKERSON PASS CLOUDY    34  32  93 S5        30.19F FOG     WCI  30
$$

COZ069>075-231700-
...SAN LUIS VALLEY/SANGRE DE CRISTO MOUNTAINS...

CITY           SKY/WX    TMP DP  RH WIND       PRES   REMARKS
ALAMOSA        MOSUNNY   52  36  54 E5        30.06S
LA VETA PASS   CLOUDY   N/A N/A N/A MISG      30.15F
SAGUACHE       MOSUNNY   50  36  57 SW5       30.07F
$$

COZ035-036-038>040-231700-
...NORTHERN COLORADO FRONT RANGE...

CITY           SKY/WX    TMP DP  RH WIND       PRES   REMARKS
DENVER INTL AP CLOUDY    54  49  83 VRB3      30.02F
DMNS CITY PARK   N/A     53  49  85 NE5       30.00F
AURORA         PTSUNNY   52  47  83 CALM      30.03F
FRONT RANGE AP CLOUDY    55  50  82 CALM      30.03F
ERIE MUNI ARPT CLOUDY    51  51  99 E6        30.01F
BOULDER MUN AP MOSUNNY   54  50  87 E7        30.00F
CENTENNIAL     PTSUNNY   53  47  79 SE8       30.02F
BROOMFIELD     PTSUNNY   52  48  87 E7        30.02F FOG
FORT COLLINS   PTSUNNY   50  48  93 SE6       30.02F
LONGMONT       MOSUNNY   58  50  75 E9        30.02F
$$

COZ041-046-047-076>085-087-088-231700-
...PIKES PEAK/PALMER DIVIDE AND SOUTHERN FOOTHILLS...

CITY           SKY/WX    TMP DP  RH WIND       PRES   REMARKS
COLO. SPRINGS  CLOUDY    53  46  77 CALM      30.04F
A. F. ACADEMY  PTSUNNY   51  44  78 VRB5      30.04F
ELLICOTT       NOT AVBL
FALCON         CLOUDY    52  46  81 SE6       30.06F
FORT CARSON    MOSUNNY   56  46  70 VRB1      30.02F
LIMON          PTSUNNY   56  48  74 S14       30.02F
MONUMENT HILL  NOT AVBL
TRINIDAD       MOSUNNY   58  49  72 VRB3      30.00F
$$

COZ042>045-048>051-090-091-231700-
...NORTHEAST COLORADO...

CITY           SKY/WX    TMP DP  RH WIND       PRES   REMARKS
GREELEY ARPT   CLOUDY    52  48  87 CALM      30.02F
AKRON          CLOUDY    55  55 100 SW6       30.00F
BURLINGTON     CLOUDY    56  53  90 SE14      30.00F
WRAY           CLOUDY   N/A N/A N/A SE14G22   30.01S
STERLING       CLOUDY    54  54 100 CALM      30.00S
HOLYOKE        NOT AVBL
FORT MORGAN    CLOUDY    51  50  95 CALM      30.02F
$$

COZ086-089-092>099-231700-
...SOUTHEAST COLORADO...

CITY           SKY/WX    TMP DP  RH WIND       PRES   REMARKS
PUEBLO         CLOUDY    56  50  80 CALM      29.99F
LA JUNTA       SUNNY     62  50  64 SE15      29.98F
LAMAR          PTSUNNY   61  51  70 SE23G29   29.96F
SPRINGFIELD      N/A     58  51  78 SE12      30.01F
$$



USA.gov is the U.S. government's official web portal to all federal, state and local government web resources and services.